Regional Weather Roundup
Issued by NWS

Home | Current Version | Previous Version | Graphics & Text | Print | Product List | Glossary On
Versions: 1 2 3 4 5 6 7 8 9 10 11 12 13 14 15 16 17 18 19 20 21 22 23 24 25 26 27 28 29 30 31 32 33 34 35 36 37 38 39 40 41 42 43 44 45 46 47 48 49 50
000
ASUS43 KIND 040509
RWRIN

WEATHER ROUNDUP FOR INDIANA
NATIONAL WEATHER SERVICE INDIANAPOLIS IN
100 AM EDT WED MAY 04 2016

NOTE: "FAIR" INDICATES FEW OR NO CLOUDS BELOW 12,000 FEET WITH NO
SIGNIFICANT WEATHER AND/OR OBSTRUCTIONS TO VISIBILITY.

* - STATION DOES NOT REPORT WEATHER SUCH AS PRECIPITATION OR FOG.

+ - STATION NOT QUALITY CONTROLLED BY THE NATIONAL WEATHER SERVICE.
    USE DATA WITH CAUTION...ESPECIALLY DEWPOINT AND RELATIVE
    HUMIDITY OBSERVATIONS.

INZ001>003-010>013-019-020-040600-
NORTHWEST INDIANA

CITY           SKY/WX    TMP DP  RH WIND       PRES   REMARKS
GARY /AIRPORT/ CLOUDY    60  47  61 SW5       29.69F
KNOX *+        CLOUDY    54  34  47 S9        29.72F
LA PORTE +     CLOUDY    57  43  61 SW6       29.71F
MICHIGAN CITY+ CLOUDY    55  41  58 S6        29.70F
MONTICELLO +   CLOUDY    55  42  61 SW7       29.75F
RENSSELAER +   CLOUDY    54  45  71 SW10      29.74F
VALPARAISO     CLOUDY    55  42  61 SW8       29.71F

$$

LMZ046-743>745-040600-
SOUTHERN LAKE MICHIGAN

STATION/POSITION TIME  TEMP    WIND        PRES    WAVE
                       AIR SEA DIR/SP/G            HT
                 (UTC) (F)     (DEG/KT/KT) (MB)    (FT)
BURNS HARBOR     0501   60     210/ 13/ 16 1005.8F
MICHIGAN CITY    0400   59     180/ 12/ 13   N/A

$$

INZ004-005-014>016-021>024-040600-
NORTH CENTRAL INDIANA

CITY           SKY/WX    TMP DP  RH WIND       PRES   REMARKS
GOSHEN         CLOUDY    55  43  63 S10       29.72F
LOGANSPORT +   MOCLDY    54  45  71 SW8       29.77F
PERU/GRISSOM   CLOUDY    54  46  76 SW9       29.75F
ROCHESTER +    PTCLDY    57  45  62 SW7       29.75F
SOUTH BEND     CLOUDY    56  41  57 SW9       29.71F
WARSAW +       CLOUDY    54  43  66 S5        29.74F

$$

INZ006>009-017-018-025>027-040600-
NORTHEAST INDIANA

CITY           SKY/WX    TMP DP  RH WIND       PRES   REMARKS
ANGOLA *+      CLOUDY    54  46  76 SW13      29.74F
AUBURN +       CLOUDY    52  43  71 S5        29.76F
FORT WAYNE     CLOUDY    53  44  71 S8        29.77F
HUNTINGTON +   CLOUDY    53  43  69 SW6       29.77F

$$

INZ028-029-035-036-043>045-051>053-040600-
WEST CENTRAL INDIANA

CITY           SKY/WX    TMP DP  RH WIND       PRES   REMARKS
CRAWFORDSVL +  CLOUDY    52  46  80 SW8       29.81F
GREENCASTLE +  CLOUDY    52  46  82 CALM      29.82F
LAFAYETTE      CLOUDY    54  45  71 SW5       29.77F
TERRE HAUTE    PTCLDY    53  45  74 SW8       29.83F

$$

INZ030>032-037>040-046>048-054>057-064-065-040600-
CENTRAL INDIANA

CITY           SKY/WX    TMP DP  RH WIND       PRES   REMARKS
CP ATTERBURY + CLOUDY    50  46  87 SW5       29.84F
FISHERS *+     CLOUDY    52  46  82 SW5       29.80F
FRANKFORT +      N/A     55  37  51 SW10      29.80F
GREENWOOD *+   CLOUDY    54  46  76 SW5       29.82F
INDIANAPOLIS   CLOUDY    53  43  68 SW8       29.80F
-EAGLE CREEK   CLOUDY    54  44  69 SW6       29.80F
KOKOMO *+      CLOUDY    54  43  66 SW9       29.77F
MARION +       CLOUDY    52  45  76 S8        29.79F
SHELBYVILLE    CLOUDY    53  47  79 S7        29.82F
ZIONSVILLE +   CLOUDY    51  44  77 S6        29.80F

$$

INZ033-034-041-042-049-050-058-059-040600-
EAST CENTRAL INDIANA

CITY           SKY/WX    TMP DP  RH WIND       PRES   REMARKS
MUNCIE         CLOUDY    53  44  71 S6        29.79F

$$

INZ060-061-067>069-081>083-085>088-040600-
SOUTHWEST INDIANA

CITY           SKY/WX    TMP DP  RH WIND       PRES   REMARKS
EVANSVILLE     CLOUDY    53  45  74 W5        29.89F
HUNTINGBURG *+ CLOUDY    54  45  71 SW6       29.88F
WASHINGTON +   CLOUDY    55  48  76 W8        29.86F

$$

INZ062-063-066-070>080-084-089>092-040600-
SOUTH CENTRAL AND SOUTHEAST INDIANA

CITY           SKY/WX    TMP DP  RH WIND       PRES   REMARKS
BEDFORD +      CLOUDY    52  52 100 SW5       29.84F
BLOOMINGTON    CLOUDY    52  44  74 SW6       29.83F
MADISON *+     CLEAR     46  45  93 CALM      29.87F
NORTH VERNON + PTCLDY   N/A N/A N/A CALM      29.85F
SEYMOUR +      CLOUDY    52  48  87 CALM      29.84F

$$




USA.gov is the U.S. government's official web portal to all federal, state and local government web resources and services.